Vancouver, British Columbia

9:55 AM PST on February 21, 2017 (GMT -0800)
Vancouver International Airport

Weather History for CYVR - August, 2013

Change the Weather History Date:

Friday, August 16, 2013

  Actual Average Record
Temperature  
Mean Temperature 67 °F -  
Max Temperature 75 °F 68 °F 82 °F (2010)
Min Temperature 59 °F 52 °F 53 °F (2011)
Cooling Degree Days 2    
Growing Degree Days 17 (Base 50)    
Moisture  
Dew Point 61 °F    
Average Humidity 80    
Maximum Humidity 94    
Minimum Humidity 57    
Precipitation  
Precipitation 0.00 in 0.07 in - ()
Sea Level Pressure  
Sea Level Pressure 30.00 in    
Wind  
Wind Speed 6 mph ()    
Max Wind Speed 12 mph    
Max Gust Speed 17 mph    
Visibility 17.0 miles    
Events Rain    
Averages and records for this station are not official NWS values.
T = Trace of Precipitation, MM = Missing Value Source: Averaged Metar Reports

Daily Weather History Graph

Daily Weather History Graph

Search for Another Location

Airport or City:

Trip Planner

Search our weather history database for the weather conditions in past years. The results will help you decide how hot, cold, wet, or windy it might be!

Date:

Astronomy

Aug. 16, 2013 Rise Set
Actual Time 6:06 AM PDT 8:26 PM PDT
Civil Twilight 5:31 AM PDT 9:01 PM PDT
Nautical Twilight 4:47 AM PDT 9:44 PM PDT
Astronomical Twilight 3:56 AM PDT 10:34 PM PDT
Moon 5:01 PM PDT (8/16) 1:04 AM PDT (8/16)
Length of Visible Light 15h 29m
Length of Day
14h 19m
Waxing Gibbous, 76% of the Moon is Illuminated
Aug 16
Waxing Gibbous
Aug 20
Full
Aug 28
Last Quarter
Sep 5
New
Sep 12
First Quarter

Hourly Weather History & Observations

Time (PDT) Temp. Dew Point Humidity Pressure Visibility Wind Dir Wind Speed Gust Speed Precip Events Conditions
12:00 AM 62.6 °F 60.8 °F 94% 29.99 in 15.0 mi SE 4.6 mph - N/A   Overcast
1:00 AM 62.6 °F 60.8 °F 94% 29.99 in 15.0 mi East 6.9 mph - N/A   Overcast
2:00 AM 62.6 °F 59.0 °F 88% 29.99 in 15.0 mi ESE 5.8 mph - N/A   Mostly Cloudy
3:00 AM 60.8 °F 59.0 °F 94% 29.99 in 15.0 mi SE 4.6 mph - N/A   Scattered Clouds
4:00 AM 60.8 °F 59.0 °F 94% 29.99 in 15.0 mi ESE 8.1 mph - N/A   Mostly Cloudy
5:00 AM 60.8 °F 59.0 °F 94% 29.98 in 15.0 mi ESE 8.1 mph - N/A   Mostly Cloudy
6:00 AM 60.8 °F 59.0 °F 94% 29.99 in 15.0 mi SE 3.5 mph - N/A   Mostly Cloudy
7:00 AM 62.6 °F 60.8 °F 94% 30.00 in 15.0 mi SE 6.9 mph - N/A   Overcast
7:56 AM 64.4 °F 60.8 °F 88% 30.00 in 15.0 mi ESE 9.2 mph - N/A   Overcast
8:00 AM 64.4 °F 60.8 °F 88% 30.00 in 15.0 mi ESE 11.5 mph - N/A   Overcast
8:47 AM 64.4 °F 60.8 °F 88% 30.01 in 15.0 mi SE 11.5 mph - N/A   Overcast
8:53 AM 64.4 °F 60.8 °F 88% 30.01 in 15.0 mi ESE 10.4 mph - N/A   Overcast
9:00 AM 66.2 °F 60.8 °F 83% 30.01 in 15.0 mi SE 9.2 mph - N/A   Overcast
9:10 AM 66.2 °F 60.8 °F 83% 30.01 in 15.0 mi SE 9.2 mph - N/A   Overcast
10:00 AM 66.2 °F 60.8 °F 83% 30.02 in 15.0 mi South 9.2 mph - N/A   Overcast
10:24 AM 66.2 °F 60.8 °F 83% 30.02 in 15.0 mi SE 8.1 mph - N/A   Overcast
11:00 AM 68 °F 62 °F 76% 30.02 in 15 mi East 6.9 mph - -   Overcast
11:00 AM 68.0 °F 62.6 °F 83% 30.01 in 15.0 mi East 8.1 mph - N/A   Overcast
12:00 PM 69.8 °F 62.6 °F 78% 30.02 in 15.0 mi SE 6.9 mph - N/A   Overcast
1:00 PM 71.6 °F 60.8 °F 69% 30.01 in 20.0 mi ESE 10.4 mph 17.3 mph N/A   Overcast
1:22 PM 71.6 °F 62.6 °F 73% 30.01 in 20.0 mi SE 5.8 mph - N/A Rain Light Rain
1:42 PM 71.6 °F 62.6 °F 73% 30.01 in 20.0 mi SSE 4.6 mph - N/A   Overcast
2:00 PM 75.2 °F 62.6 °F 65% 30.00 in 20.0 mi ESE 6.9 mph - N/A   Mostly Cloudy
2:17 PM 75.2 °F 59.0 °F 57% 30.00 in 20.0 mi SE 11.5 mph - N/A   Overcast
3:00 PM 69.8 °F 64.4 °F 83% 30.00 in 20.0 mi WSW 6.9 mph - N/A   Overcast
4:00 PM 71.6 °F 62.6 °F 73% 29.99 in 20.0 mi WNW 9.2 mph - N/A   Mostly Cloudy
5:00 PM 73 °F 62 °F 59% 29.99 in 19 mi WNW 10.4 mph - -   Partly Cloudy
5:00 PM 73.4 °F 60.8 °F 65% 29.99 in 20.0 mi NW 10.4 mph - N/A   Mostly Cloudy
6:00 PM 75.2 °F 60.8 °F 61% 29.97 in 30.0 mi NNW 5.8 mph - N/A   Mostly Cloudy
7:00 PM 71.6 °F 60.8 °F 69% 29.97 in 20.0 mi West 5.8 mph - N/A   Mostly Cloudy
8:00 PM 69.8 °F 60.8 °F 73% 29.97 in 15.0 mi NW 3.5 mph - N/A   Mostly Cloudy
9:00 PM 69.8 °F 62.6 °F 78% 29.97 in 20.0 mi Calm Calm - N/A   Mostly Cloudy
10:00 PM 69.8 °F 62.6 °F 78% 29.97 in 20.0 mi NNW 3.5 mph - N/A   Overcast
11:00 PM 67 °F 63 °F 81% 29.99 in 19 mi NW 2.3 mph - -   Overcast
11:00 PM 68.0 °F 62.6 °F 83% 29.98 in 20.0 mi Calm Calm - N/A   Overcast